Weather History for Spokane Felts, WA

Change the Weather History Date:

Sunday, December 8, 2013

  Actual Average Record
Temperature  
Mean Temperature 10 °F 30 °F  
Max Temperature 16 °F 36 °F 51 °F (2014)
Min Temperature 3 °F 25 °F 3 °F (2013)
Degree Days  
Heating Degree Days 55 35  
Month to date heating degree days 348 271  
Since 1 July heating degree days 1874 1845  
Cooling Degree Days 0 0  
Month to date cooling degree days 0 0  
Year to date cooling degree days 704 406  
Moisture  
Dew Point -1 °F    
Average Humidity 63    
Maximum Humidity 79    
Minimum Humidity 46    
Precipitation  
Precipitation T in 0.09 in 0.28 in (2004)
Month to date precipitation 0.26 0.68  
Year to date precipitation 13.51 15.90  
Sea Level Pressure  
Sea Level Pressure 30.49 in    
Wind  
Wind Speed 2 mph (SW)    
Max Wind Speed 9 mph    
Max Gust Speed 13 mph    
Visibility 9 miles    
Events Snow    
T = Trace of Precipitation, MM = Missing Value Source: NWS Daily Summary

Daily Weather History Graph

Daily Weather History Graph

Search for Another Location

Airport:

Trip Planner

Search our weather history database for the weather conditions in past years. The results will help you decide how hot, cold, wet, or windy it might be!

Date:

Astronomy

Dec. 08, 2013 Rise Set
Actual Time 7:25 AM PST 3:57 PM PST
Civil Twilight 6:49 AM PST 4:33 PM PST
Nautical Twilight 6:10 AM PST 5:12 PM PST
Astronomical Twilight 5:32 AM PST 5:49 PM PST
Moon 11:27 AM PST (12/8) 11:15 PM PST (12/8)
Length of Visible Light 9h 43m
Length of Day
8h 32m
Waxing Crescent, 41% of the Moon is Illuminated
Dec 8
Waxing Crescent
Dec 9
First Quarter
Dec 17
Full
Dec 25
Last Quarter
Jan 1
New

Hourly Weather History & Observations

Time (PST) Temp. Windchill Dew Point Humidity Pressure Visibility Wind Dir Wind Speed Gust Speed Precip Events Conditions
12:53 AM 3.0 °F - -2.0 °F 80% 30.43 in 10.0 mi Calm Calm - N/A   Clear
1:53 AM 6.1 °F -4.3 °F -4.0 °F 63% 30.42 in 10.0 mi SW 5.8 mph - N/A   Clear
2:53 AM 6.1 °F - -4.0 °F 63% 30.43 in 10.0 mi Calm Calm - N/A   Clear
3:53 AM 6.1 °F - -2.0 °F 69% 30.43 in 10.0 mi Calm Calm - N/A   Overcast
4:53 AM 8.1 °F -0.5 °F -4.0 °F 58% 30.45 in 10.0 mi WSW 4.6 mph - N/A   Overcast
5:53 AM 8.1 °F -4.3 °F -2.9 °F 61% 30.45 in 10.0 mi SW 8.1 mph - N/A   Overcast
6:37 AM 6.8 °F -2.0 °F -0.4 °F 72% 30.34 in 2.5 mi South 4.6 mph - 0.00 in Snow Light Snow
6:48 AM 6.8 °F -0.1 °F -0.4 °F 72% 30.34 in 1.8 mi WSW 3.5 mph - 0.00 in Snow Light Snow
6:53 AM 7.0 °F -1.7 °F -0.0 °F 73% 30.46 in 2.0 mi SW 4.6 mph - 0.00 in Snow Light Snow
7:11 AM 6.8 °F -0.1 °F 1.4 °F 79% 30.34 in 6.0 mi SW 3.5 mph - 0.00 in   Mostly Cloudy
7:53 AM 7.0 °F -1.7 °F -0.0 °F 73% 30.48 in 10.0 mi SW 4.6 mph - 0.00 in   Mostly Cloudy
8:53 AM 9.0 °F 0.6 °F -0.0 °F 67% 30.49 in 10.0 mi SW 4.6 mph - N/A   Mostly Cloudy
9:53 AM 10.9 °F -0.8 °F -0.0 °F 61% 30.51 in 10.0 mi SW 8.1 mph - N/A   Overcast
10:53 AM 12.0 °F 4.1 °F -0.0 °F 59% 30.52 in 10.0 mi WSW 4.6 mph - N/A   Overcast
11:53 AM 12.0 °F 5.9 °F -2.0 °F 53% 30.51 in 10.0 mi WSW 3.5 mph - N/A   Scattered Clouds
12:53 PM 14.0 °F - -2.0 °F 49% 30.51 in 10.0 mi Calm Calm - N/A   Scattered Clouds
1:53 PM 15.1 °F - -2.0 °F 47% 30.50 in 10.0 mi Calm Calm - N/A   Clear
2:53 PM 15.1 °F - -2.9 °F 45% 30.51 in 10.0 mi Calm Calm - N/A   Clear
3:53 PM 15.1 °F - -2.0 °F 47% 30.52 in 10.0 mi Calm Calm - N/A   Clear
4:53 PM 10.9 °F - 3.0 °F 70% 30.55 in 10.0 mi Calm Calm - N/A   Clear
5:53 PM 10.0 °F - 1.9 °F 70% 30.55 in 10.0 mi Calm Calm - N/A   Clear
6:53 PM 10.0 °F - 1.9 °F 70% 30.56 in 10.0 mi Calm Calm - N/A   Mostly Cloudy
7:53 PM 12.0 °F - 1.0 °F 61% 30.58 in 10.0 mi Calm Calm - N/A   Overcast
8:53 PM 12.9 °F - 1.0 °F 59% 30.58 in 10.0 mi Calm Calm - N/A   Overcast
9:53 PM 12.9 °F - -0.0 °F 56% 30.58 in 10.0 mi Calm Calm - N/A   Mostly Cloudy
10:53 PM 12.9 °F - -0.0 °F 56% 30.58 in 10.0 mi Calm Calm - N/A   Overcast
11:53 PM 14.0 °F 6.5 °F -0.9 °F 52% 30.57 in 10.0 mi SSW 4.6 mph - N/A   Overcast